Location: Red Shale Campground
(45.5700°N, 106.1600°W)
Time: 16:19:14
(UTC-06:00)

Daily predictions for brighter satellites

Satellite Brightness Start Highest point End
(mag) Time Altitude Azimuth Time Altitude Azimuth Time Altitude Azimuth
SJ-6B 3.0 19:15:22 10° SSE 19:19:16 55° ENE 19:23:17 10° N
COSMO-SKYMED 1 2.6 19:16:16 10° NNE 19:20:38 85° ESE 19:24:59 10° SSW
COSMOS 2455 4.3 19:16:28 10° WSW 19:22:03 39° NW 19:27:42 10° NNE
Cosmos 292 Rocket 4.2 19:23:17 10° SSW 19:28:04 69° WNW 19:32:55 10° NNE
HJ-1C 4.0 19:26:07 10° SE 19:29:13 35° ENE 19:32:20 10° N
IDEFIX/ARIANE 42P 4.3 19:24:25 10° SSW 19:29:15 38° W 19:34:10 10° NNW
Cosmos 1758 4.3 19:26:41 10° SSE 19:30:09 27° E 19:33:39 10° NNE
Cosmos 2333 Rocket 3.2 19:24:53 10° SW 19:30:31 52° WNW 19:36:10 10° NNE
Spot 1 4.4 19:27:15 10° SSE 19:31:50 54° ENE 19:36:11 10° N
Timation 1 Rocket 4.4 19:27:25 10° NNW 19:33:26 85° ENE 19:39:24 10° SSE
NOAA 12 4.1 19:28:36 10° SSE 19:33:51 76° ENE 19:39:09 10° N
Cosmos 1674 4.3 19:31:39 10° NNE 19:34:16 17° ENE 19:36:37 11° ESE
Aureole 2 Rocket 2.9 19:30:21 10° SSW 19:34:43 73° ESE 19:38:59 10° NNE
In-Cosmos 22 4.4 19:31:07 10° N 19:36:50 57° ENE 19:42:28 10° SSE
SAR-Lupe-1 4.1 19:33:55 10° SSE 19:37:28 82° WSW 19:41:04 10° NNW
Cosmos 1484 Rocket 3.9 19:34:04 10° S 19:37:46 48° W 19:41:35 10° NNW
FengYun 1-2 T 4.5 19:34:40 10° SE 19:39:55 47° ENE 19:45:10 10° N
Cosmos 1766 Rocket 3.6 19:35:52 10° N 19:40:12 55° ENE 19:44:27 10° SSE
USA 215 3.6 19:36:46 10° ENE 19:42:58 44° SE 19:49:09 10° SSW
Meteor 1-29 3.7 19:42:16 10° NNE 19:45:27 31° E 19:48:35 10° SSE
Helios 1B rocket 2.7 19:43:29 10° NNE 19:47:25 43° E 19:51:21 10° S
ALOS 2.8 19:44:14 10° SE 19:48:32 38° ENE 19:52:52 10° N
Cosmos 1076 Rocket 3.5 19:46:47 10° N 19:51:08 87° E 19:55:29 10° S
Cosmos 2237 Rocket 3.6 19:48:19 10° SW 19:53:41 42° NW 19:59:04 10° NNE
CZ-4C R/B 3.3 19:49:07 10° WSW 19:54:22 46° NW 20:00:22 10° NNE
Meteor 1-21 Rocket 4.2 19:49:17 10° N 19:54:48 59° ENE 20:00:14 10° SSE
SeaSat 1 3.8 19:52:39 10° ENE 19:55:57 18° ESE 19:59:14 10° SSE
ERS-1 Rocket 4.5 19:55:08 15° E 19:56:47 18° ENE 20:00:03 10° NNE
Cosmos 2034 Rocket 4.0 19:50:40 10° S 19:56:49 64° E 20:03:06 10° NNE
ATLAS 5 CENTAUR R/B 1.9 19:52:15 10° SSW 19:56:55 57° ESE 20:02:02 10° NE
Cosmos 1766 3.7 19:54:12 10° SSW 19:58:08 66° W 20:02:08 10° N
Cosmos 1464 Rocket 4.0 19:52:22 10° S 19:58:37 86° E 20:04:50 10° N
CZ-4B DEB 3.3 19:57:05 16° SE 19:59:21 38° ENE 20:02:25 10° N
Cosmos-2242 3.1 19:55:22 10° S 19:59:37 52° E 20:03:54 10° NNE
ATLAS 3B R/B 4.4 19:54:23 10° W 20:01:12 35° NW 20:07:48 10° NNE
USA 186 3.5 20:04:10 12° NNE 20:04:10 12° NNE 20:04:27 10° NNE
FREGAT/IRIS 3.9 20:01:49 10° S 20:04:47 44° W 20:07:47 10° NNW
Cosmos 1452 Rocket 3.6 20:00:34 10° NNW 20:05:51 81° WSW 20:11:06 10° SSE
ATLAS CENTAUR R/B 4.2 20:06:09 10° WNW 20:08:30 15° WSW 20:10:45 10° SW
Cosmos 2151 4.2 20:06:17 10° NNE 20:09:38 22° ENE 20:09:57 22° ENE
CZ-2D R/B 3.5 20:09:16 18° SE 20:11:54 48° ENE 20:15:40 10° N
SL-16 R/B 2.8 20:08:04 10° SW 20:13:42 61° WNW 20:19:23 10° NNE
Cosmos 1500 Rocket 3.9 20:09:33 10° N 20:13:50 45° ENE 20:16:35 20° SE
Cosmos 1408 Rocket 4.1 20:09:34 10° NNW 20:13:53 61° W 20:18:08 10° S
Cosmos 1842 Rocket 4.0 20:11:10 10° SSE 20:15:08 37° E 20:19:09 10° NNE
Cosmos 1544 3.0 20:13:55 10° S 20:17:37 62° E 20:21:20 10° NNE
SL-8 R/B 4.5 20:14:46 10° SSW 20:18:59 32° SE 20:20:05 28° ESE
NOSS 3-2 (A) 3.7 20:13:36 10° SW 20:19:43 73° NW 20:26:30 10° NE
Cosmos 1953 2.5 20:20:02 10° SSW 20:24:00 73° W 20:27:59 10° N
Cosmos 468 4.4 20:19:47 10° SSW 20:25:00 74° ESE 20:30:15 10° NNE
H-2A R/B 2.6 20:25:26 23° SSE 20:27:46 72° ENE 20:31:40 10° N
Cosmos 1420 Rocket 4.0 20:22:35 10° NNW 20:27:54 89° NE 20:32:19 15° SSE
Cosmos 1805 3.7 20:24:28 10° SSW 20:28:22 65° W 20:32:19 10° N
Cosmos 1346 3.6 20:29:03 10° NNW 20:32:00 58° W 20:33:27 25° SSW
Resurs 1-3 4.3 20:29:13 10° S 20:33:31 55° W 20:37:51 10° NNW
Resurs 01 Rocket 2.9 20:30:23 10° S 20:34:37 42° W 20:38:52 10° NNW
ATLAS CENTAUR R/B 4.1 20:29:43 10° SW 20:35:38 85° NW 20:56:12 10° NE
FENGYUN 3A 3.7 20:30:33 10° SSE 20:35:55 82° WSW 20:41:21 10° NNW
ASTEX 1 3.2 20:31:37 10° N 20:36:34 78° E 20:41:27 10° S
TELKOM 3 4.2 20:34:34 10° WNW 20:36:36 42° W 20:36:36 42° W
ERBS 4.1 20:37:49 10° NNW 20:40:37 22° NNE 20:40:42 22° NNE
Cosmos 1743 Rocket 3.9 20:37:56 10° NNW 20:42:21 64° W 20:46:43 10° S
Cosmos 1269 Rocket 3.9 20:42:15 10° SSW 20:47:32 88° ESE 20:52:51 10° NNE
Cosmos 1048 Rocket 3.9 20:43:57 10° SSW 20:49:15 79° ESE 20:54:31 10° NNE
Cosmos 1470 2.6 20:49:04 31° S 20:50:53 89° E 20:54:47 10° N
CENTAUR R/B 2.6 20:47:58 10° SSW 20:53:47 50° ESE 21:00:20 10° NE
Cosmos 2369 Rocket 2.1 20:48:35 10° NNW 20:54:16 78° ENE 20:56:07 44° SE
Envisat 3.2 20:56:32 48° ENE 20:56:38 48° ENE 21:01:31 10° N
Cosmos 1943 3.2 20:51:20 10° S 20:56:48 55° ESE 21:02:18 10° NE
Cosmos 1943 Rocket 2.7 20:52:31 10° NNW 20:57:50 40° NE 20:58:11 39° ENE
NOSS 3-2 (C) 4.2 20:52:13 10° WSW 20:58:16 55° NW 21:04:58 10° NNE
Cosmos 1733 3.3 20:59:28 68° N 20:59:28 68° N 21:02:54 10° N
Cosmos 2263 4.2 20:53:25 10° NNW 20:59:11 63° ENE 21:00:19 52° ESE
GP-B 3.0 20:55:45 10° N 21:00:13 86° E 21:01:02 59° S
Cosmos 1603 4.1 20:55:21 10° SW 21:01:03 66° WNW 21:06:49 10° NNE
H-2A R/B 4.3 21:03:03 10° NE 21:03:03 10° NE 21:03:04 10° NE
SPOT 5 4.3 21:04:14 20° NNE 21:04:14 20° NNE 21:06:06 10° N
BREEZE-M DEB (TANK) 3.0 20:55:36 10° W 21:06:52 87° SSW 21:07:42 63° ESE
Cosmos 2279 Rocket 4.1 21:07:31 51° E 21:07:31 51° E 21:13:27 10° NNE
Cosmos 1655 Rocket 3.9 21:03:49 10° N 21:10:04 70° E 21:11:27 53° SE
Cosmos 1674 4.1 21:06:27 10° NNW 21:10:05 38° W 21:11:36 26° SW
Cosmos 1092 Rocket 4.4 21:05:22 10° NNW 21:11:29 61° W 21:17:09 12° S
H-2A R/B 3.6 21:26:03 28° NNE 21:26:03 28° NNE 21:28:22 10° N
Cosmos 2026 Rocket 3.9 21:19:48 10° N 21:25:55 83° W 21:27:32 52° S
ALOS 4.3 21:22:14 10° SSW 21:26:04 25° W 21:29:57 10° NW
USA 215 3.5 21:20:58 17° NE 21:26:10 66° NNW 21:32:37 10° WSW
Cosmos 1634 Rocket 4.2 21:22:40 10° SSW 21:28:53 69° W 21:35:06 10° N
Meteor 1-11 4.2 21:23:20 10° NNW 21:29:10 81° W 21:29:58 66° SSW
Cosmos 1428 Rocket 4.3 21:23:36 10° N 21:29:53 72° E 21:30:00 72° E
Meteor 1-16 Rocket 4.0 21:32:23 79° NNW 21:32:23 79° NNW 21:37:30 10° N
Cosmos 1939 Rocket 4.4 21:34:46 33° NNW 21:34:46 33° NNW 21:37:04 10° NNW
SeaSat 1 2.6 21:28:59 10° NNE 21:33:55 70° WNW 21:38:49 10° SW
ERS-1 Rocket 3.1 21:35:09 69° W 21:35:09 69° W 21:40:03 10° NNW
Cosmos 1110 Rocket 4.2 21:33:51 10° NNW 21:38:51 69° W 21:38:51 69° W
UNK 4.2 21:21:35 10° WNW 21:40:13 80° NNE 21:41:05 68° E
ATLAS 5 CENTAUR R/B 3.7 21:37:38 10° W 21:41:58 29° NW 21:46:40 10° NNE
ARGOS 4.4 22:05:59 34° N 22:05:59 34° N 22:09:03 10° N
Terra 4.4 22:10:19 13° N 22:10:19 13° N 22:10:55 10° N
Cosmos 2369 Rocket 4.4 22:34:08 10° WNW 22:37:36 17° W 22:37:55 17° WSW
H-2A R/B 4.3 22:43:41 19° N 22:43:41 19° N 22:45:07 10° N
Cosmos 1943 Rocket 3.9 22:36:27 10° NW 22:39:43 28° WNW 22:39:43 28° WNW
CENTAUR R/B 3.6 22:38:38 10° WSW 22:44:37 42° NW 22:51:20 10° NNE
USA 215 4.5 23:08:21 36° N 23:08:33 36° NNW 23:14:21 10° WNW
